Mytilini, Greece

1:32 AM EET on December 18, 2017 (GMT +0200)
Odysseas Elytis

Weather History for LGMT - March, 2017

Change the Weather History Date:

Tuesday, March 21, 2017

  Actual Average Record
Temperature  
Mean Temperature 59 °F -  
Max Temperature 69 °F 65 °F 73 °F (2012)
Min Temperature 49 °F 51 °F 39 °F (1998)
Degree Days  
Heating Degree Days 6    
Growing Degree Days 9 (Base 50)    
Moisture  
Dew Point 52 °F    
Average Humidity 72    
Maximum Humidity 88    
Minimum Humidity 50    
Precipitation  
Precipitation 0.00 in 0.07 in - ()
Sea Level Pressure  
Sea Level Pressure 29.95 in    
Wind  
Wind Speed 2 mph ()    
Max Wind Speed 5 mph    
Max Gust Speed -    
Visibility 5.6 miles    
Events      
Averages and records for this station are not official NWS values.
T = Trace of Precipitation, MM = Missing Value Source: Averaged Metar Reports

Daily Weather History Graph

Daily Weather History Graph

Search for Another Location

Airport or City:

Trip Planner

Search our weather history database for the weather conditions in past years. The results will help you decide how hot, cold, wet, or windy it might be!

Date:

Astronomy

Mar. 21, 2017 Rise Set
Actual Time 6:15 AM EET 6:26 PM EET
Civil Twilight 5:48 AM EET 6:53 PM EET
Nautical Twilight 5:17 AM EET 7:24 PM EET
Astronomical Twilight 4:46 AM EET 7:56 PM EET
Moon 1:40 AM EET (3/21) 11:50 AM EET (3/21)
Length of Visible Light 13h 04m
Length of Day
12h 11m
Last Quarter, 43% of the Moon is Illuminated
Mar 21
Last Quarter
Mar 28
New
Apr 3
First Quarter
Apr 11
Full
Apr 19
Last Quarter

Hourly Weather History & Observations

Time (EET) Temp. Dew Point Humidity Pressure Visibility Wind Dir Wind Speed Gust Speed Precip Events Conditions
6:20 AM 50.0 °F 44.6 °F 82% 29.95 in - Variable 3.5 mph - N/A   Clear
6:50 AM 50.0 °F 46.4 °F 87% 29.98 in 4.3 mi Variable 2.3 mph - N/A   Scattered Clouds
7:20 AM 51.8 °F 48.2 °F 88% 29.98 in 5.6 mi Variable 2.3 mph - N/A   Partly Cloudy
7:50 AM 53.6 °F 50.0 °F 88% 29.98 in 5.6 mi Calm Calm - N/A   Partly Cloudy
8:00 AM 54 °F 50 °F 82% 29.99 in 6 mi Calm Calm - -   Mist
8:20 AM 55.4 °F 51.8 °F 88% 29.98 in - Variable 2.3 mph - N/A   Clear
8:50 AM 57.2 °F 53.6 °F 88% 29.98 in - Variable 3.5 mph - N/A   Clear
9:20 AM 59.0 °F 55.4 °F 88% 29.98 in - Variable 3.5 mph - N/A   Clear
9:50 AM 59.0 °F 55.4 °F 88% 29.98 in - Variable 3.5 mph - N/A   Clear
10:20 AM 60.8 °F 55.4 °F 82% 29.98 in - Variable 3.5 mph - N/A   Clear
10:50 AM 60.8 °F 55.4 °F 82% 29.98 in - NE 4.6 mph - N/A   Clear
11:00 AM 61 °F 55 °F 76% 30.00 in 6 mi NE 4.6 mph - -  
11:20 AM 60.8 °F 55.4 °F 82% 29.98 in - NE 4.6 mph - N/A   Clear
11:50 AM 62.6 °F 55.4 °F 77% 29.98 in - Variable 3.5 mph - N/A   Clear
12:20 PM 64.4 °F 55.4 °F 73% 29.98 in - Variable 2.3 mph - N/A   Clear
12:50 PM 66.2 °F 57.2 °F 73% 29.98 in - Variable 2.3 mph - N/A   Clear
1:20 PM 66.2 °F 57.2 °F 73% 29.95 in - ESE 4.6 mph - N/A   Clear
1:50 PM 66.2 °F 55.4 °F 68% 29.95 in - ENE 4.6 mph - N/A   Clear
2:00 PM 67 °F 55 °F 56% 29.96 in 6 mi ENE 4.6 mph - -  
2:20 PM 66.2 °F 55.4 °F 68% 29.95 in - ENE 3.5 mph - N/A   Clear
2:50 PM 68.0 °F 55.4 °F 64% 29.95 in - East 3.5 mph - N/A   Clear
3:20 PM 68.0 °F 55.4 °F 64% 29.95 in - East 3.5 mph - N/A   Clear
3:50 PM 68.0 °F 55.4 °F 64% 29.92 in - Variable 3.5 mph - N/A   Clear
4:20 PM 68.0 °F 55.4 °F 64% 29.89 in - Variable 3.5 mph - N/A   Clear
4:50 PM 69.8 °F 51.8 °F 53% 29.92 in - Calm Calm - N/A   Clear
5:20 PM 69.8 °F 51.8 °F 53% 29.89 in - Calm Calm - N/A   Clear
5:50 PM 66.2 °F 51.8 °F 60% 29.89 in - Calm Calm - N/A   Clear
6:20 PM 64.4 °F 51.8 °F 64% 29.89 in - Calm Calm - N/A   Clear
6:50 PM 62.6 °F 50.0 °F 63% 29.89 in - Calm Calm - N/A   Clear
7:20 PM 60.8 °F 50.0 °F 68% 29.92 in - Calm Calm - N/A   Clear
7:50 PM 59.0 °F 46.4 °F 63% 29.92 in - WNW 4.6 mph - N/A   Clear
8:00 PM 60 °F 46 °F 50% 29.93 in 6 mi WNW 4.6 mph - -  
8:20 PM 59.0 °F 46.4 °F 63% 29.92 in - WNW 4.6 mph - N/A   Clear
8:50 PM 57.2 °F 46.4 °F 67% 29.92 in - SSW 4.6 mph - N/A   Clear
9:20 PM 57.2 °F 46.4 °F 67% 29.92 in - SSW 3.5 mph - N/A   Clear
9:50 PM 57.2 °F 46.4 °F 67% 29.92 in - Calm Calm - N/A   Clear